Time,TemperatureF,DewpointF,PressureIn,WindDirection,WindDirectionDegrees,WindSpeedMPH,WindSpeedGustMPH,Humidity,HourlyPrecipIn,Conditions,Clouds,dailyrainin,SoftwareType,DateUTC
2013-07-02 00:03:00,57.9,42.8,29.53,NE,45,0.0,0.0,57,0.00,CLR,,0.00,WeatherDisplay:10.37,2013-07-02 06:03:00,
2013-07-02 00:08:00,57.9,42.8,29.53,NE,45,0.0,0.0,57,0.00,CLR,,0.00,WeatherDisplay:10.37,2013-07-02 06:08:00,
2013-07-02 00:13:00,57.9,42.8,29.53,NE,45,0.0,0.0,57,0.00,CLR,,0.00,WeatherDisplay:10.37,2013-07-02 06:13:00,
2013-07-02 00:18:00,57.9,42.8,29.54,NE,45,0.0,0.0,57,0.00,CLR,,0.00,WeatherDisplay:10.37,2013-07-02 06:18:00,
2013-07-02 00:23:00,57.9,42.8,29.54,NE,45,0.0,0.0,57,0.00,CLR,,0.00,WeatherDisplay:10.37,2013-07-02 06:23:00,
2013-07-02 00:28:00,57.9,42.8,29.54,NE,45,0.0,0.0,57,0.00,CLR,,0.00,WeatherDisplay:10.37,2013-07-02 06:28:00,
2013-07-02 00:33:00,57.9,42.8,29.54,NE,45,0.0,0.0,57,0.00,CLR,,0.00,WeatherDisplay:10.37,2013-07-02 06:33:00,
2013-07-02 00:38:00,57.9,42.8,29.55,NE,45,0.0,0.0,57,0.00,CLR,,0.00,WeatherDisplay:10.37,2013-07-02 06:38:00,
2013-07-02 00:43:00,57.9,42.8,29.55,NE,45,0.0,0.0,57,0.00,CLR,,0.00,WeatherDisplay:10.37,2013-07-02 06:43:00,
2013-07-02 00:48:00,57.9,42.8,29.55,NE,45,0.0,0.0,57,0.00,CLR,,0.00,WeatherDisplay:10.37,2013-07-02 06:48:00,
2013-07-02 00:53:00,57.9,42.8,29.55,NE,45,0.0,0.0,57,0.00,CLR,,0.00,WeatherDisplay:10.37,2013-07-02 06:53:00,
2013-07-02 00:58:00,57.9,42.8,29.55,NE,45,0.0,0.0,57,0.00,CLR,,0.00,WeatherDisplay:10.37,2013-07-02 06:58:00,
2013-07-02 01:03:00,57.9,42.8,29.55,NE,45,0.0,0.0,57,0.00,CLR,,0.00,WeatherDisplay:10.37,2013-07-02 07:03:00,
2013-07-02 01:08:00,57.9,42.8,29.55,NE,45,0.0,0.0,57,0.00,CLR,,0.00,WeatherDisplay:10.37,2013-07-02 07:08:00,
2013-07-02 01:13:00,57.9,42.8,29.55,NE,45,0.0,0.0,57,0.00,CLR,,0.00,WeatherDisplay:10.37,2013-07-02 07:13:00,
2013-07-02 01:18:00,57.9,42.8,29.55,NE,45,0.0,0.0,57,0.00,CLR,,0.00,WeatherDisplay:10.37,2013-07-02 07:18:00,
2013-07-02 01:23:00,57.9,42.8,29.55,NE,45,0.0,0.0,57,0.00,CLR,,0.00,WeatherDisplay:10.37,2013-07-02 07:23:00,
2013-07-02 01:28:00,57.9,42.8,29.55,NE,45,0.0,0.0,57,0.00,CLR,,0.00,WeatherDisplay:10.37,2013-07-02 07:28:00,
2013-07-02 01:34:00,57.9,42.8,29.55,NE,45,0.0,0.0,57,0.00,CLR,,0.00,WeatherDisplay:10.37,2013-07-02 07:34:00,
2013-07-02 01:39:00,57.9,42.8,29.55,NE,45,0.0,0.0,57,0.00,CLR,,0.00,WeatherDisplay:10.37,2013-07-02 07:39:00,
2013-07-02 01:44:00,57.9,42.8,29.55,NE,45,0.0,0.0,57,0.00,CLR,,0.00,WeatherDisplay:10.37,2013-07-02 07:44:00,
2013-07-02 01:49:00,57.9,42.8,29.55,NE,45,0.0,0.0,57,0.00,CLR,,0.00,WeatherDisplay:10.37,2013-07-02 07:49:00,
2013-07-02 01:54:00,57.9,42.8,29.55,NE,45,0.0,0.0,57,0.00,CLR,,0.00,WeatherDisplay:10.37,2013-07-02 07:54:00,
2013-07-02 01:59:00,57.9,42.8,29.56,NE,45,0.0,0.0,57,0.00,CLR,,0.00,WeatherDisplay:10.37,2013-07-02 07:59:00,
2013-07-02 02:04:00,57.9,42.8,29.56,NE,45,0.0,0.0,57,0.00,CLR,,0.00,WeatherDisplay:10.37,2013-07-02 08:04:00,
2013-07-02 02:09:00,57.9,42.8,29.56,NE,45,0.0,0.0,57,0.00,CLR,,0.00,WeatherDisplay:10.37,2013-07-02 08:09:00,
2013-07-02 02:14:00,57.9,42.8,29.56,NE,45,0.0,0.0,57,0.00,CLR,,0.00,WeatherDisplay:10.37,2013-07-02 08:14:00,
2013-07-02 02:19:00,57.9,42.8,29.56,NE,45,0.0,0.0,57,0.00,CLR,,0.00,WeatherDisplay:10.37,2013-07-02 08:19:00,
2013-07-02 02:24:00,57.9,42.8,29.56,NE,45,0.0,0.0,57,0.00,CLR,,0.00,WeatherDisplay:10.37,2013-07-02 08:24:00,
2013-07-02 02:29:00,57.9,42.8,29.56,NE,45,0.0,0.0,57,0.00,CLR,,0.00,WeatherDisplay:10.37,2013-07-02 08:29:00,
2013-07-02 02:34:00,57.9,42.8,29.56,NE,45,0.0,0.0,57,0.00,CLR,,0.00,WeatherDisplay:10.37,2013-07-02 08:34:00,
2013-07-02 02:39:00,57.9,42.8,29.56,NE,45,0.0,0.0,57,0.00,CLR,,0.00,WeatherDisplay:10.37,2013-07-02 08:39:00,
2013-07-02 02:44:00,57.9,42.8,29.56,NE,45,0.0,0.0,57,0.00,CLR,,0.00,WeatherDisplay:10.37,2013-07-02 08:44:00,
2013-07-02 02:49:00,57.9,42.8,29.56,NE,45,0.0,0.0,57,0.00,CLR,,0.00,WeatherDisplay:10.37,2013-07-02 08:49:00,
2013-07-02 02:54:00,57.9,42.8,29.56,NE,45,0.0,0.0,57,0.00,CLR,,0.00,WeatherDisplay:10.37,2013-07-02 08:54:00,
2013-07-02 02:59:00,57.9,42.8,29.57,NE,45,0.0,0.0,57,0.00,CLR,,0.00,WeatherDisplay:10.37,2013-07-02 08:59:00,
2013-07-02 03:04:00,57.9,42.8,29.57,NE,45,0.0,0.0,57,0.00,CLR,,0.00,WeatherDisplay:10.37,2013-07-02 09:04:00,
2013-07-02 03:09:00,57.9,42.8,29.57,NE,45,0.0,0.0,57,0.00,CLR,,0.00,WeatherDisplay:10.37,2013-07-02 09:09:00,
2013-07-02 03:14:00,57.9,42.8,29.57,NE,45,0.0,0.0,57,0.00,CLR,,0.00,WeatherDisplay:10.37,2013-07-02 09:14:00,
2013-07-02 03:19:00,57.9,42.8,29.57,NE,45,0.0,0.0,57,0.00,CLR,,0.00,WeatherDisplay:10.37,2013-07-02 09:19:00,
2013-07-02 03:24:00,57.9,42.8,29.57,NE,45,0.0,0.0,57,0.00,CLR,,0.00,WeatherDisplay:10.37,2013-07-02 09:24:00,
2013-07-02 03:29:00,57.9,42.8,29.57,SE,135,0.0,0.0,57,0.00,CLR,,0.00,WeatherDisplay:10.37,2013-07-02 09:29:00,
2013-07-02 03:34:00,57.9,42.8,29.57,SE,135,0.0,0.0,57,0.00,CLR,,0.00,WeatherDisplay:10.37,2013-07-02 09:34:00,
2013-07-02 03:39:00,57.9,42.8,29.56,SE,135,0.0,0.0,57,0.00,CLR,,0.00,WeatherDisplay:10.37,2013-07-02 09:39:00,
2013-07-02 03:44:00,57.9,42.8,29.56,North,0,0.0,0.0,57,0.00,CLR,,0.00,WeatherDisplay:10.37,2013-07-02 09:44:00,
2013-07-02 03:49:00,57.9,42.8,29.56,North,0,0.0,0.0,57,0.00,CLR,,0.00,WeatherDisplay:10.37,2013-07-02 09:49:00,
2013-07-02 03:54:00,57.9,42.8,29.56,ENE,68,0.0,0.0,57,0.00,CLR,,0.00,WeatherDisplay:10.37,2013-07-02 09:54:00,
2013-07-02 03:59:00,57.9,42.8,29.56,ENE,68,0.0,0.0,57,0.00,CLR,,0.00,WeatherDisplay:10.37,2013-07-02 09:59:00,
2013-07-02 04:04:00,57.9,42.8,29.56,ENE,68,0.0,0.0,57,0.00,CLR,,0.00,WeatherDisplay:10.37,2013-07-02 10:04:00,
2013-07-02 04:09:00,57.9,42.8,29.56,NE,45,0.0,0.0,57,0.00,CLR,,0.00,WeatherDisplay:10.37,2013-07-02 10:09:00,
2013-07-02 04:14:00,57.9,42.8,29.56,NE,45,0.0,0.0,57,0.00,CLR,,0.00,WeatherDisplay:10.37,2013-07-02 10:14:00,
2013-07-02 04:19:00,57.9,42.8,29.58,NE,45,0.0,0.0,57,0.00,CLR,,0.00,WeatherDisplay:10.37,2013-07-02 10:19:00,
2013-07-02 04:24:00,57.9,42.8,29.58,NE,45,0.0,0.0,57,0.00,CLR,,0.00,WeatherDisplay:10.37,2013-07-02 10:24:00,
2013-07-02 04:29:00,57.9,42.8,29.58,ENE,68,0.0,0.0,57,0.00,CLR,,0.00,WeatherDisplay:10.37,2013-07-02 10:29:00,
2013-07-02 04:34:00,57.9,42.8,29.58,ENE,68,0.0,0.0,57,0.00,CLR,,0.00,WeatherDisplay:10.37,2013-07-02 10:34:00,
2013-07-02 04:39:00,57.9,42.8,29.57,ENE,68,0.0,0.0,57,0.00,CLR,,0.00,WeatherDisplay:10.37,2013-07-02 10:39:00,
2013-07-02 04:44:00,57.9,42.8,29.57,NE,45,0.0,0.0,57,0.00,CLR,,0.00,WeatherDisplay:10.37,2013-07-02 10:44:00,
2013-07-02 04:49:00,57.9,42.8,29.57,NNE,22,0.0,0.0,57,0.00,CLR,,0.00,WeatherDisplay:10.37,2013-07-02 10:49:00,
2013-07-02 04:54:00,57.9,42.8,29.57,North,0,0.0,0.0,57,0.00,CLR,,0.00,WeatherDisplay:10.37,2013-07-02 10:54:00,
2013-07-02 04:59:00,57.9,42.8,29.57,NNE,22,0.0,0.0,57,0.00,CLR,,0.00,WeatherDisplay:10.37,2013-07-02 10:59:00,
2013-07-02 05:04:00,57.9,42.8,29.57,NNE,22,0.0,0.0,57,0.00,CLR,,0.00,WeatherDisplay:10.37,2013-07-02 11:04:00,
2013-07-02 05:09:00,57.9,42.8,29.57,ENE,68,0.0,0.0,57,0.00,CLR,,0.00,WeatherDisplay:10.37,2013-07-02 11:09:00,
2013-07-02 05:14:00,57.9,42.8,29.57,North,0,0.0,0.0,57,0.00,CLR,,0.00,WeatherDisplay:10.37,2013-07-02 11:14:00,
2013-07-02 05:19:00,57.9,42.8,29.58,ENE,68,0.0,0.0,57,0.00,CLR,,0.00,WeatherDisplay:10.37,2013-07-02 11:19:00,
2013-07-02 05:24:00,57.9,42.8,29.58,ENE,68,0.0,0.0,57,0.00,CLR,,0.00,WeatherDisplay:10.37,2013-07-02 11:24:00,
2013-07-02 05:29:00,57.9,42.8,29.58,ENE,68,0.0,0.0,57,0.00,CLR,,0.00,WeatherDisplay:10.37,2013-07-02 11:29:00,
2013-07-02 05:34:00,57.9,42.8,29.58,ENE,68,0.0,0.0,57,0.00,CLR,,0.00,WeatherDisplay:10.37,2013-07-02 11:34:00,
2013-07-02 05:39:00,57.9,42.8,29.57,ENE,68,0.0,0.0,57,0.00,CLR,,0.00,WeatherDisplay:10.37,2013-07-02 11:39:00,
2013-07-02 05:44:00,57.9,42.8,29.57,ENE,68,0.0,0.0,57,0.00,CLR,,0.00,WeatherDisplay:10.37,2013-07-02 11:44:00,
2013-07-02 05:49:00,57.9,42.8,29.57,ENE,68,0.0,0.0,57,0.00,CLR,,0.00,WeatherDisplay:10.37,2013-07-02 11:49:00,
2013-07-02 05:54:00,57.9,42.8,29.57,East,90,0.0,0.0,57,0.00,CLR,,0.00,WeatherDisplay:10.37,2013-07-02 11:54:00,
2013-07-02 05:59:00,57.9,42.8,29.58,East,90,0.0,0.0,57,0.00,CLR,,0.00,WeatherDisplay:10.37,2013-07-02 11:59:00,
2013-07-02 06:04:00,57.9,42.8,29.58,East,90,0.0,0.0,57,0.00,CLR,,0.00,WeatherDisplay:10.37,2013-07-02 12:04:00,
2013-07-02 06:09:00,57.9,42.8,29.58,East,90,0.0,0.0,57,0.00,CLR,,0.00,WeatherDisplay:10.37,2013-07-02 12:09:00,
2013-07-02 06:14:00,57.9,42.8,29.58,NE,45,0.0,0.0,57,0.00,CLR,,0.00,WeatherDisplay:10.37,2013-07-02 12:14:00,
2013-07-02 06:19:00,57.9,42.8,29.59,NE,45,0.0,0.0,57,0.00,CLR,,0.00,WeatherDisplay:10.37,2013-07-02 12:19:00,
2013-07-02 06:24:00,57.9,42.8,29.59,East,90,0.0,0.0,57,0.00,CLR,,0.00,WeatherDisplay:10.37,2013-07-02 12:24:00,
2013-07-02 06:29:00,57.9,42.8,29.59,East,90,0.0,0.0,57,0.00,CLR,,0.00,WeatherDisplay:10.37,2013-07-02 12:29:00,
2013-07-02 06:34:00,57.9,42.8,29.59,ESE,112,0.0,0.0,57,0.00,CLR,,0.00,WeatherDisplay:10.37,2013-07-02 12:34:00,
2013-07-02 06:39:00,57.9,42.8,29.58,SSW,202,0.0,0.0,57,0.00,CLR,,0.00,WeatherDisplay:10.37,2013-07-02 12:39:00,
2013-07-02 06:44:00,57.9,42.8,29.58,SE,135,0.0,0.0,57,0.00,CLR,,0.00,WeatherDisplay:10.37,2013-07-02 12:44:00,
2013-07-02 06:49:00,57.9,42.8,29.58,SE,135,0.0,0.0,57,0.00,CLR,,0.00,WeatherDisplay:10.37,2013-07-02 12:49:00,
2013-07-02 06:54:00,57.9,42.8,29.58,SE,135,0.0,0.0,57,0.00,CLR,,0.00,WeatherDisplay:10.37,2013-07-02 12:54:00,
2013-07-02 06:59:00,57.9,42.8,29.58,NE,45,0.0,0.0,57,0.00,CLR,,0.00,WeatherDisplay:10.37,2013-07-02 12:59:00,
2013-07-02 07:04:00,57.9,42.8,29.58,NE,45,0.0,0.0,57,0.00,CLR,,0.00,WeatherDisplay:10.37,2013-07-02 13:04:00,
2013-07-02 07:09:00,57.9,42.8,29.58,NE,45,0.0,0.0,57,0.00,CLR,,0.00,WeatherDisplay:10.37,2013-07-02 13:09:00,
2013-07-02 07:14:00,57.9,42.8,29.58,NE,45,0.0,0.0,57,0.00,CLR,,0.00,WeatherDisplay:10.37,2013-07-02 13:14:00,
2013-07-02 07:19:00,57.9,42.8,29.57,NNE,22,0.0,0.0,57,0.00,CLR,,0.00,WeatherDisplay:10.37,2013-07-02 13:19:00,
2013-07-02 07:24:00,57.9,42.8,29.57,North,0,0.0,0.0,57,0.00,CLR,,0.00,WeatherDisplay:10.37,2013-07-02 13:24:00,
2013-07-02 07:29:00,57.9,42.8,29.57,North,0,0.0,0.0,57,0.00,CLR,,0.00,WeatherDisplay:10.37,2013-07-02 13:29:00,
2013-07-02 07:34:00,57.9,42.8,29.57,North,0,0.0,0.0,57,0.00,CLR,,0.00,WeatherDisplay:10.37,2013-07-02 13:34:00,
2013-07-02 07:39:00,57.9,42.8,29.57,NNW,338,0.0,0.0,57,0.00,CLR,,0.00,WeatherDisplay:10.37,2013-07-02 13:39:00,
2013-07-02 07:44:00,57.9,42.8,29.57,WNW,292,0.0,0.0,57,0.00,CLR,,0.00,WeatherDisplay:10.37,2013-07-02 13:44:00,
2013-07-02 07:49:00,57.9,42.8,29.57,NE,45,0.0,0.0,57,0.00,CLR,,0.00,WeatherDisplay:10.37,2013-07-02 13:49:00,
2013-07-02 07:54:00,57.9,42.8,29.57,West,270,0.0,0.0,57,0.00,CLR,,0.00,WeatherDisplay:10.37,2013-07-02 13:54:00,
2013-07-02 07:59:00,57.9,42.8,29.57,WNW,292,0.0,0.0,57,0.00,CLR,,0.00,WeatherDisplay:10.37,2013-07-02 13:59:00,
2013-07-02 08:04:00,57.9,42.8,29.57,WNW,292,0.0,0.0,57,0.00,CLR,,0.00,WeatherDisplay:10.37,2013-07-02 14:04:00,
2013-07-02 08:09:00,57.9,42.8,29.57,NNW,338,0.0,0.0,57,0.00,CLR,,0.00,WeatherDisplay:10.37,2013-07-02 14:09:00,
2013-07-02 08:14:00,57.9,42.8,29.57,NW,315,0.0,0.0,57,0.00,CLR,,0.00,WeatherDisplay:10.37,2013-07-02 14:14:00,
2013-07-02 08:19:00,57.9,42.8,29.56,SSW,202,0.0,0.0,57,0.00,CLR,,0.00,WeatherDisplay:10.37,2013-07-02 14:19:00,
2013-07-02 08:24:00,57.9,42.8,29.56,NW,315,0.0,0.0,57,0.00,CLR,,0.00,WeatherDisplay:10.37,2013-07-02 14:24:00,
2013-07-02 08:29:00,57.9,42.8,29.56,SW,225,0.0,0.0,57,0.00,CLR,,0.00,WeatherDisplay:10.37,2013-07-02 14:29:00,
2013-07-02 08:34:00,57.9,42.8,29.56,North,0,0.0,0.0,57,0.00,CLR,,0.00,WeatherDisplay:10.37,2013-07-02 14:34:00,
2013-07-02 08:39:00,57.9,42.8,29.56,NW,315,0.0,0.0,57,0.00,CLR,,0.00,WeatherDisplay:10.37,2013-07-02 14:39:00,
2013-07-02 08:44:00,57.9,42.8,29.56,SW,225,0.0,0.0,57,0.00,CLR,,0.00,WeatherDisplay:10.37,2013-07-02 14:44:00,
2013-07-02 08:49:00,57.9,42.8,29.56,West,270,0.0,0.0,57,0.00,CLR,,0.00,WeatherDisplay:10.37,2013-07-02 14:49:00,
2013-07-02 08:54:00,57.9,42.8,29.56,SW,225,0.0,0.0,57,0.00,CLR,,0.00,WeatherDisplay:10.37,2013-07-02 14:54:00,
2013-07-02 08:59:00,57.9,42.8,29.57,WSW,248,0.0,0.0,57,0.00,CLR,,0.00,WeatherDisplay:10.37,2013-07-02 14:59:00,
2013-07-02 09:04:00,57.9,42.8,29.57,WSW,248,0.0,0.0,57,0.00,CLR,,0.00,WeatherDisplay:10.37,2013-07-02 15:04:00,
2013-07-02 09:09:00,57.9,42.8,29.57,WSW,248,0.0,0.0,57,0.00,CLR,,0.00,WeatherDisplay:10.37,2013-07-02 15:09:00,
2013-07-02 09:14:00,57.9,42.8,29.57,WSW,248,0.0,0.0,57,0.00,CLR,,0.00,WeatherDisplay:10.37,2013-07-02 15:14:00,
2013-07-02 09:19:00,57.9,42.8,29.59,WSW,248,0.0,0.0,57,0.00,CLR,,0.00,WeatherDisplay:10.37,2013-07-02 15:19:00,
2013-07-02 09:24:00,57.9,42.8,29.59,WSW,248,0.0,0.0,57,0.00,CLR,,0.00,WeatherDisplay:10.37,2013-07-02 15:24:00,
2013-07-02 09:29:00,57.9,42.8,29.59,WSW,248,0.0,0.0,57,0.00,CLR,,0.00,WeatherDisplay:10.37,2013-07-02 15:29:00,
2013-07-02 09:34:00,57.9,42.8,29.59,WSW,248,0.0,0.0,57,0.00,CLR,,0.00,WeatherDisplay:10.37,2013-07-02 15:34:00,
2013-07-02 09:39:00,57.9,42.8,29.61,SSW,202,0.0,0.0,57,0.00,CLR,,0.00,WeatherDisplay:10.37,2013-07-02 15:39:00,
2013-07-02 09:44:00,57.9,42.8,29.61,SW,225,0.0,0.0,57,0.00,CLR,,0.00,WeatherDisplay:10.37,2013-07-02 15:44:00,
2013-07-02 09:49:00,57.9,42.8,29.61,West,270,0.0,0.0,57,0.00,CLR,,0.00,WeatherDisplay:10.37,2013-07-02 15:49:00,
2013-07-02 09:54:00,57.9,42.8,29.61,WNW,292,0.0,0.0,57,0.00,CLR,,0.00,WeatherDisplay:10.37,2013-07-02 15:54:00,
2013-07-02 09:59:00,57.9,42.8,29.60,WSW,248,0.0,0.0,57,0.00,CLR,,0.00,WeatherDisplay:10.37,2013-07-02 15:59:00,
2013-07-02 10:04:00,57.9,42.8,29.60,West,270,0.0,0.0,57,0.00,CLR,,0.00,WeatherDisplay:10.37,2013-07-02 16:04:00,
2013-07-02 10:09:00,57.9,42.8,29.60,South,180,0.0,0.0,57,0.00,CLR,,0.00,WeatherDisplay:10.37,2013-07-02 16:09:00,
2013-07-02 10:14:00,57.9,42.8,29.60,SSW,202,0.0,0.0,57,0.00,CLR,,0.00,WeatherDisplay:10.37,2013-07-02 16:14:00,
2013-07-02 10:19:00,57.9,42.8,29.59,WSW,248,0.0,0.0,57,0.00,CLR,,0.00,WeatherDisplay:10.37,2013-07-02 16:19:00,
2013-07-02 10:24:00,57.9,42.8,29.59,WSW,248,0.0,0.0,57,0.00,CLR,,0.00,WeatherDisplay:10.37,2013-07-02 16:24:00,
2013-07-02 10:29:00,57.9,42.8,29.59,SSW,202,0.0,0.0,57,0.00,CLR,,0.00,WeatherDisplay:10.37,2013-07-02 16:29:00,
2013-07-02 10:34:00,57.9,42.8,29.59,SW,225,0.0,0.0,57,0.00,CLR,,0.00,WeatherDisplay:10.37,2013-07-02 16:34:00,
2013-07-02 10:39:00,57.9,42.8,29.59,SW,225,0.0,0.0,57,0.00,CLR,,0.00,WeatherDisplay:10.37,2013-07-02 16:39:00,
2013-07-02 10:44:00,57.9,42.8,29.59,SSW,202,1.2,1.2,57,0.00,CLR,,0.00,WeatherDisplay:10.37,2013-07-02 16:44:00,
2013-07-02 10:49:00,57.9,42.8,29.59,SSW,202,3.5,3.5,57,0.00,CLR,,0.00,WeatherDisplay:10.37,2013-07-02 16:49:00,
2013-07-02 10:55:00,57.9,42.8,29.59,WSW,248,3.5,3.5,57,0.00,CLR,,0.00,WeatherDisplay:10.37,2013-07-02 16:55:00,
2013-07-02 11:00:00,57.9,42.8,29.59,SW,225,4.6,4.6,57,0.00,CLR,,0.00,WeatherDisplay:10.37,2013-07-02 17:00:00,
2013-07-02 11:05:00,57.9,42.8,29.59,SE,135,3.5,3.5,57,0.00,CLR,,0.00,WeatherDisplay:10.37,2013-07-02 17:05:00,
2013-07-02 11:10:00,57.9,42.8,29.59,SE,135,0.0,2.2,57,0.00,CLR,,0.00,WeatherDisplay:10.37,2013-07-02 17:10:00,
2013-07-02 11:15:00,57.9,42.8,29.59,SE,135,2.3,2.3,57,0.00,CLR,,0.00,WeatherDisplay:10.37,2013-07-02 17:15:00,
2013-07-02 11:20:00,57.9,42.8,29.57,WSW,248,3.5,3.5,57,0.00,CLR,,0.00,WeatherDisplay:10.37,2013-07-02 17:20:00,
2013-07-02 11:25:00,57.9,42.8,29.57,SW,225,3.5,3.5,57,0.00,CLR,,0.00,WeatherDisplay:10.37,2013-07-02 17:25:00,
2013-07-02 11:30:00,57.9,42.8,29.57,SSW,202,3.5,3.5,57,0.00,CLR,,0.00,WeatherDisplay:10.37,2013-07-02 17:30:00,
2013-07-02 11:35:00,57.9,42.8,29.57,SE,135,0.0,1.3,57,0.00,CLR,,0.00,WeatherDisplay:10.37,2013-07-02 17:35:00,
2013-07-02 11:40:00,57.9,42.8,29.57,SSE,158,4.6,4.6,57,0.00,CLR,,0.00,WeatherDisplay:10.37,2013-07-02 17:40:00,
2013-07-02 11:45:00,57.9,42.8,29.57,SW,225,4.6,4.6,57,0.00,CLR,,0.00,WeatherDisplay:10.37,2013-07-02 17:45:00,
2013-07-02 11:50:00,57.9,42.8,29.57,SSW,202,0.0,0.3,57,0.00,CLR,,0.00,WeatherDisplay:10.37,2013-07-02 17:50:00,
2013-07-02 11:55:00,57.9,42.8,29.57,SSE,158,2.3,2.3,57,0.00,CLR,,0.00,WeatherDisplay:10.37,2013-07-02 17:55:00,
2013-07-02 12:00:00,57.9,42.8,29.56,WNW,292,1.2,1.2,57,0.00,CLR,,0.00,WeatherDisplay:10.37,2013-07-02 18:00:00,
2013-07-02 12:05:00,57.9,42.8,29.56,WNW,292,1.2,1.2,57,0.00,CLR,,0.00,WeatherDisplay:10.37,2013-07-02 18:05:00,
2013-07-02 12:10:00,57.9,42.8,29.56,WNW,292,1.2,1.2,57,0.00,CLR,,0.00,WeatherDisplay:10.37,2013-07-02 18:10:00,
2013-07-02 12:15:00,57.9,42.8,29.56,WNW,292,1.2,1.2,57,0.00,CLR,,0.00,WeatherDisplay:10.37,2013-07-02 18:15:00,
2013-07-02 12:20:00,57.9,42.8,29.56,WNW,292,1.2,1.2,57,0.00,CLR,,0.00,WeatherDisplay:10.37,2013-07-02 18:20:00,
2013-07-02 12:25:00,57.9,42.8,29.56,WSW,248,0.0,0.3,57,0.00,CLR,,0.00,WeatherDisplay:10.37,2013-07-02 18:25:00,
2013-07-02 12:30:00,57.9,42.8,29.56,WSW,248,0.0,0.3,57,0.00,CLR,,0.00,WeatherDisplay:10.37,2013-07-02 18:30:00,
2013-07-02 12:35:00,57.9,42.8,29.56,WSW,248,0.0,0.3,57,0.00,CLR,,0.00,WeatherDisplay:10.37,2013-07-02 18:35:00,
2013-07-02 12:40:00,57.9,42.8,29.56,WSW,248,0.0,0.0,57,0.00,CLR,,0.00,WeatherDisplay:10.37,2013-07-02 18:40:00,
2013-07-02 12:45:00,57.9,42.8,29.56,WSW,248,0.0,0.0,57,0.00,CLR,,0.00,WeatherDisplay:10.37,2013-07-02 18:45:00,
2013-07-02 12:50:00,57.9,42.8,29.56,WSW,248,0.0,0.0,57,0.00,CLR,,0.00,WeatherDisplay:10.37,2013-07-02 18:50:00,
2013-07-02 12:55:00,57.9,42.8,29.56,WSW,248,0.0,0.0,57,0.00,CLR,,0.00,WeatherDisplay:10.37,2013-07-02 18:55:00,
2013-07-02 13:00:00,57.9,42.8,29.55,WSW,248,0.0,0.0,57,0.00,CLR,,0.00,WeatherDisplay:10.37,2013-07-02 19:00:00,
2013-07-02 13:05:00,57.9,42.8,29.55,WSW,248,0.0,0.0,57,0.00,CLR,,0.00,WeatherDisplay:10.37,2013-07-02 19:05:00,
2013-07-02 13:10:00,57.9,42.8,29.55,WSW,248,0.0,0.0,57,0.00,CLR,,0.00,WeatherDisplay:10.37,2013-07-02 19:10:00,
2013-07-02 13:15:00,57.9,42.8,29.55,WSW,248,0.0,0.0,57,0.00,CLR,,0.00,WeatherDisplay:10.37,2013-07-02 19:15:00,
2013-07-02 13:20:00,57.9,42.8,29.54,WSW,248,0.0,0.0,57,0.00,CLR,,0.00,WeatherDisplay:10.37,2013-07-02 19:20:00,
2013-07-02 13:25:00,57.9,42.8,29.54,WSW,248,0.0,0.0,57,0.00,CLR,,0.00,WeatherDisplay:10.37,2013-07-02 19:25:00,
2013-07-02 13:30:00,57.9,42.8,29.54,WSW,248,0.0,0.0,57,0.00,CLR,,0.00,WeatherDisplay:10.37,2013-07-02 19:30:00,
2013-07-02 13:35:00,57.9,42.8,29.54,WSW,248,0.0,0.0,57,0.00,CLR,,0.00,WeatherDisplay:10.37,2013-07-02 19:35:00,
2013-07-02 13:40:00,57.9,42.8,29.53,WSW,248,0.0,0.0,57,0.00,CLR,,0.00,WeatherDisplay:10.37,2013-07-02 19:40:00,
2013-07-02 13:45:00,57.9,42.8,29.53,WSW,248,0.0,0.0,57,0.00,CLR,,0.00,WeatherDisplay:10.37,2013-07-02 19:45:00,
2013-07-02 13:50:00,57.9,42.8,29.53,WSW,248,0.0,0.0,57,0.00,CLR,,0.00,WeatherDisplay:10.37,2013-07-02 19:50:00,
2013-07-02 13:55:00,57.9,42.8,29.53,WSW,248,0.0,0.0,57,0.00,CLR,,0.00,WeatherDisplay:10.37,2013-07-02 19:55:00,
2013-07-02 14:00:00,57.9,42.8,29.52,WSW,248,0.0,0.0,57,0.00,CLR,,0.00,WeatherDisplay:10.37,2013-07-02 20:00:00,
2013-07-02 14:05:00,57.9,42.8,29.52,WSW,248,0.0,0.0,57,0.00,CLR,,0.00,WeatherDisplay:10.37,2013-07-02 20:05:00,
2013-07-02 14:10:00,57.9,42.8,29.52,WSW,248,0.0,0.0,57,0.00,CLR,,0.00,WeatherDisplay:10.37,2013-07-02 20:10:00,
2013-07-02 14:15:00,57.9,42.8,29.52,WSW,248,0.0,0.0,57,0.00,CLR,,0.00,WeatherDisplay:10.37,2013-07-02 20:15:00,
2013-07-02 14:20:00,57.9,42.8,29.52,WSW,248,0.0,0.0,57,0.00,CLR,,0.00,WeatherDisplay:10.37,2013-07-02 20:20:00,
2013-07-02 14:25:00,57.9,42.8,29.52,WSW,248,0.0,0.0,57,0.00,CLR,,0.00,WeatherDisplay:10.37,2013-07-02 20:25:00,
2013-07-02 14:30:00,57.9,42.8,29.52,WSW,248,0.0,0.0,57,0.00,CLR,,0.00,WeatherDisplay:10.37,2013-07-02 20:30:00,
2013-07-02 14:35:00,57.9,42.8,29.52,WSW,248,0.0,0.0,57,0.00,CLR,,0.00,WeatherDisplay:10.37,2013-07-02 20:35:00,
2013-07-02 14:40:00,57.9,42.8,29.51,WSW,248,0.0,0.0,57,0.00,CLR,,0.00,WeatherDisplay:10.37,2013-07-02 20:40:00,
2013-07-02 14:45:00,57.9,42.8,29.51,WSW,248,0.0,0.0,57,0.00,CLR,,0.00,WeatherDisplay:10.37,2013-07-02 20:45:00,
2013-07-02 14:50:00,57.9,42.8,29.51,WSW,248,0.0,0.0,57,0.00,CLR,,0.00,WeatherDisplay:10.37,2013-07-02 20:50:00,
2013-07-02 14:55:00,57.9,42.8,29.51,WSW,248,0.0,0.0,57,0.00,CLR,,0.00,WeatherDisplay:10.37,2013-07-02 20:55:00,
2013-07-02 15:01:00,57.9,42.8,29.51,WSW,248,0.0,0.0,57,0.00,CLR,,0.00,WeatherDisplay:10.37,2013-07-02 21:01:00,
2013-07-02 15:06:00,57.9,42.8,29.51,WSW,248,0.0,0.0,57,0.00,CLR,,0.00,WeatherDisplay:10.37,2013-07-02 21:06:00,
2013-07-02 15:11:00,57.9,42.8,29.51,WSW,248,0.0,0.0,57,0.00,CLR,,0.00,WeatherDisplay:10.37,2013-07-02 21:11:00,
2013-07-02 15:16:00,57.9,42.8,29.51,WSW,248,0.0,0.0,57,0.00,CLR,,0.00,WeatherDisplay:10.37,2013-07-02 21:16:00,
2013-07-02 15:21:00,57.9,42.8,29.50,WSW,248,0.0,0.0,57,0.00,CLR,,0.00,WeatherDisplay:10.37,2013-07-02 21:21:00,
2013-07-02 15:26:00,57.9,42.8,29.50,WSW,248,0.0,0.0,57,0.00,CLR,,0.00,WeatherDisplay:10.37,2013-07-02 21:26:00,
2013-07-02 15:31:00,57.9,42.8,29.50,WSW,248,0.0,0.0,57,0.00,CLR,,0.00,WeatherDisplay:10.37,2013-07-02 21:31:00,
2013-07-02 15:36:00,57.9,42.8,29.50,WSW,248,0.0,0.0,57,0.00,CLR,,0.00,WeatherDisplay:10.37,2013-07-02 21:36:00,
2013-07-02 15:41:00,57.9,42.8,29.49,WSW,248,0.0,0.0,57,0.00,CLR,,0.00,WeatherDisplay:10.37,2013-07-02 21:41:00,
2013-07-02 15:46:00,57.9,42.8,29.49,WSW,248,0.0,0.0,57,0.00,CLR,,0.00,WeatherDisplay:10.37,2013-07-02 21:46:00,
2013-07-02 15:51:00,57.9,42.8,29.49,WSW,248,0.0,0.0,57,0.00,CLR,,0.00,WeatherDisplay:10.37,2013-07-02 21:51:00,
2013-07-02 15:56:00,57.9,42.8,29.49,WSW,248,0.0,0.0,57,0.00,CLR,,0.00,WeatherDisplay:10.37,2013-07-02 21:56:00,
2013-07-02 16:01:00,57.9,42.8,29.48,WSW,248,0.0,0.0,57,0.00,CLR,,0.00,WeatherDisplay:10.37,2013-07-02 22:01:00,
2013-07-02 16:06:00,57.9,42.8,29.48,WSW,248,0.0,0.0,57,0.00,CLR,,0.00,WeatherDisplay:10.37,2013-07-02 22:06:00,
2013-07-02 16:11:00,57.9,42.8,29.48,WSW,248,0.0,0.0,57,0.00,CLR,,0.00,WeatherDisplay:10.37,2013-07-02 22:11:00,
2013-07-02 16:16:00,57.9,42.8,29.48,WSW,248,0.0,0.0,57,0.00,CLR,,0.00,WeatherDisplay:10.37,2013-07-02 22:16:00,
2013-07-02 16:21:00,57.9,42.8,29.47,WSW,248,0.0,0.0,57,0.00,CLR,,0.00,WeatherDisplay:10.37,2013-07-02 22:21:00,
2013-07-02 16:26:00,57.9,42.8,29.47,WSW,248,0.0,0.0,57,0.00,CLR,,0.00,WeatherDisplay:10.37,2013-07-02 22:26:00,
2013-07-02 16:31:00,57.9,42.8,29.47,WSW,248,0.0,0.0,57,0.00,CLR,,0.00,WeatherDisplay:10.37,2013-07-02 22:31:00,
2013-07-02 16:36:00,57.9,42.8,29.47,WSW,248,0.0,0.0,57,0.00,CLR,,0.00,WeatherDisplay:10.37,2013-07-02 22:36:00,
2013-07-02 16:41:00,57.9,42.8,29.46,WSW,248,0.0,0.0,57,0.00,CLR,,0.00,WeatherDisplay:10.37,2013-07-02 22:41:00,
2013-07-02 16:46:00,57.9,42.8,29.46,WSW,248,0.0,0.0,57,0.00,CLR,,0.00,WeatherDisplay:10.37,2013-07-02 22:46:00,
2013-07-02 16:51:00,57.9,42.8,29.46,WSW,248,0.0,0.0,57,0.00,CLR,,0.00,WeatherDisplay:10.37,2013-07-02 22:51:00,
2013-07-02 16:56:00,57.9,42.8,29.46,WSW,248,0.0,0.0,57,0.00,CLR,,0.00,WeatherDisplay:10.37,2013-07-02 22:56:00,
2013-07-02 17:01:00,57.9,42.8,29.45,WSW,248,0.0,0.0,57,0.00,CLR,,0.00,WeatherDisplay:10.37,2013-07-02 23:01:00,
2013-07-02 17:06:00,57.9,42.8,29.45,WSW,248,0.0,0.0,57,0.00,CLR,,0.00,WeatherDisplay:10.37,2013-07-02 23:06:00,
2013-07-02 17:11:00,57.9,42.8,29.45,WSW,248,0.0,0.0,57,0.00,CLR,,0.00,WeatherDisplay:10.37,2013-07-02 23:11:00,
2013-07-02 17:16:00,57.9,42.8,29.45,WSW,248,0.0,0.0,57,0.00,CLR,,0.00,WeatherDisplay:10.37,2013-07-02 23:16:00,
2013-07-02 17:21:00,57.9,42.8,29.44,WSW,248,0.0,0.0,57,0.00,CLR,,0.00,WeatherDisplay:10.37,2013-07-02 23:21:00,
2013-07-02 17:26:00,57.9,42.8,29.44,WSW,248,0.0,0.0,57,0.00,CLR,,0.00,WeatherDisplay:10.37,2013-07-02 23:26:00,
2013-07-02 17:31:00,57.9,42.8,29.44,WSW,248,0.0,0.0,57,0.00,CLR,,0.00,WeatherDisplay:10.37,2013-07-02 23:31:00,
2013-07-02 17:32:00,57.9,42.8,29.44,WSW,248,0.0,0.0,57,0.00,CLR,,0.00,WeatherDisplay:10.37,2013-07-02 23:32:00,
2013-07-02 17:37:00,57.9,42.8,29.44,WSW,248,0.0,0.0,57,0.00,CLR,,0.00,WeatherDisplay:10.37,2013-07-02 23:37:00,
2013-07-02 17:42:00,57.9,42.8,29.44,WSW,248,0.0,0.0,57,0.00,CLR,,0.00,WeatherDisplay:10.37,2013-07-02 23:42:00,
2013-07-02 17:47:00,57.9,42.8,29.44,WSW,248,0.0,0.0,57,0.00,CLR,,0.00,WeatherDisplay:10.37,2013-07-02 23:47:00,
2013-07-02 17:52:00,57.9,42.8,29.44,WSW,248,0.0,0.0,57,0.00,CLR,,0.00,WeatherDisplay:10.37,2013-07-02 23:52:00,
2013-07-02 17:54:00,57.9,42.8,29.44,WSW,248,0.0,0.0,57,0.00,CLR,,0.00,WeatherDisplay:10.37,2013-07-02 23:54:00,
2013-07-02 17:59:00,57.9,42.8,29.42,WSW,248,0.0,0.0,57,0.00,CLR,,0.00,WeatherDisplay:10.37,2013-07-02 23:59:00,
2013-07-02 18:04:00,57.9,42.8,29.42,WSW,248,0.0,0.0,57,0.00,CLR,,0.00,WeatherDisplay:10.37,2013-07-03 00:04:00,
2013-07-02 18:09:00,57.9,42.8,29.42,WSW,248,0.0,0.0,57,0.00,CLR,,0.00,WeatherDisplay:10.37,2013-07-03 00:09:00,
2013-07-02 18:11:00,57.9,42.8,29.42,WSW,248,0.0,0.0,57,0.00,CLR,,0.00,WeatherDisplay:10.37,2013-07-03 00:11:00,
2013-07-02 18:16:00,57.9,42.8,29.42,WSW,248,0.0,0.0,57,0.00,CLR,,0.00,WeatherDisplay:10.37,2013-07-03 00:16:00,
2013-07-02 18:21:00,57.9,42.8,29.44,WSW,248,0.0,0.0,57,0.00,CLR,,0.00,WeatherDisplay:10.37,2013-07-03 00:21:00,
2013-07-02 18:24:00,57.9,42.8,29.44,WSW,248,0.0,0.0,57,0.00,CLR,,0.00,WeatherDisplay:10.37,2013-07-03 00:24:00,
2013-07-02 18:28:00,57.9,42.8,29.44,WSW,248,0.0,0.0,57,0.00,CLR,,0.00,WeatherDisplay:10.37,2013-07-03 00:28:00,
2013-07-02 18:33:00,57.9,42.8,29.44,WSW,248,0.0,0.0,57,0.00,CLR,,0.00,WeatherDisplay:10.37,2013-07-03 00:33:00,
2013-07-02 18:37:00,57.9,42.8,29.44,WSW,248,0.0,0.0,57,0.00,CLR,,0.00,WeatherDisplay:10.37,2013-07-03 00:37:00,
2013-07-02 18:42:00,57.9,42.8,29.44,WSW,248,0.0,0.0,57,0.00,CLR,,0.00,WeatherDisplay:10.37,2013-07-03 00:42:00,
2013-07-02 18:47:00,57.9,42.8,29.44,WSW,248,0.0,0.0,57,0.00,CLR,,0.00,WeatherDisplay:10.37,2013-07-03 00:47:00,
2013-07-02 18:52:00,57.9,42.8,29.44,WSW,248,0.0,0.0,57,0.00,CLR,,0.00,WeatherDisplay:10.37,2013-07-03 00:52:00,
2013-07-02 18:57:00,57.9,42.8,29.42,WSW,248,0.0,0.0,57,0.00,CLR,,0.00,WeatherDisplay:10.37,2013-07-03 00:57:00,
2013-07-02 19:02:00,57.9,42.8,29.42,WSW,248,0.0,0.0,57,0.00,CLR,,0.00,WeatherDisplay:10.37,2013-07-03 01:02:00,
2013-07-02 19:05:00,57.9,42.8,29.42,WSW,248,0.0,0.0,57,0.00,CLR,,0.00,WeatherDisplay:10.37,2013-07-03 01:05:00,
2013-07-02 19:09:00,57.9,42.8,29.42,SSW,202,2.2,2.2,57,0.00,CLR,,0.00,WeatherDisplay:10.37,2013-07-03 01:09:00,
2013-07-02 19:14:00,57.9,42.8,29.42,SSE,158,2.3,2.3,57,0.00,CLR,,0.00,WeatherDisplay:10.37,2013-07-03 01:14:00,
2013-07-02 19:19:00,57.9,42.8,29.42,SSW,202,2.3,2.3,57,0.00,CLR,,0.00,WeatherDisplay:10.37,2013-07-03 01:19:00,
2013-07-02 19:24:00,57.9,42.8,29.42,SSW,202,3.5,3.5,57,0.00,CLR,,0.00,WeatherDisplay:10.37,2013-07-03 01:24:00,
2013-07-02 19:26:00,57.9,42.8,29.42,WSW,248,1.4,1.4,57,0.00,CLR,,0.00,WeatherDisplay:10.37,2013-07-03 01:26:00,
2013-07-02 19:31:00,57.9,42.8,29.42,WSW,248,0.0,0.3,57,0.00,CLR,,0.00,WeatherDisplay:10.37,2013-07-03 01:31:00,
2013-07-02 19:36:00,57.9,42.8,29.42,SW,225,0.0,0.1,57,0.00,CLR,,0.00,WeatherDisplay:10.37,2013-07-03 01:36:00,
2013-07-02 19:41:00,57.9,42.8,29.36,NE,45,0.0,0.0,57,0.00,CLR,,0.00,WeatherDisplay:10.37,2013-07-03 01:41:00,
2013-07-02 19:46:00,57.9,42.8,29.36,SSE,158,0.0,0.0,57,0.00,CLR,,0.00,WeatherDisplay:10.37,2013-07-03 01:46:00,
2013-07-02 19:49:00,57.9,42.8,29.36,SW,225,0.0,0.0,57,0.00,CLR,,0.00,WeatherDisplay:10.37,2013-07-03 01:49:00,
2013-07-02 19:50:00,57.9,42.8,29.36,SW,225,0.0,0.0,57,0.00,CLR,,0.00,WeatherDisplay:10.37,2013-07-03 01:50:00,
2013-07-02 19:55:00,57.9,42.8,29.36,SE,135,0.0,0.0,57,0.00,CLR,,0.00,WeatherDisplay:10.37,2013-07-03 01:55:00,
2013-07-02 20:00:00,57.9,42.8,29.36,SE,135,0.0,0.0,57,0.00,CLR,,0.00,WeatherDisplay:10.37,2013-07-03 02:00:00,
2013-07-02 20:05:00,57.9,42.8,29.36,SSE,158,2.3,2.3,57,0.00,CLR,,0.00,WeatherDisplay:10.37,2013-07-03 02:05:00,
2013-07-02 20:10:00,57.9,42.8,29.36,NNE,22,0.0,0.5,57,0.00,CLR,,0.00,WeatherDisplay:10.37,2013-07-03 02:10:00,
2013-07-02 20:15:00,57.9,42.8,29.36,ESE,112,2.3,2.3,57,0.00,CLR,,0.00,WeatherDisplay:10.37,2013-07-03 02:15:00,
2013-07-02 20:21:00,57.9,42.8,29.35,East,90,0.0,0.3,57,0.00,CLR,,0.00,WeatherDisplay:10.37,2013-07-03 02:21:00,
2013-07-02 20:26:00,57.9,42.8,29.35,East,90,0.0,0.1,57,0.00,CLR,,0.00,WeatherDisplay:10.37,2013-07-03 02:26:00,
2013-07-02 20:31:00,57.9,42.8,29.35,North,0,0.0,0.0,57,0.00,CLR,,0.00,WeatherDisplay:10.37,2013-07-03 02:31:00,
2013-07-02 20:32:00,57.9,42.8,29.35,North,0,0.0,0.0,57,0.00,CLR,,0.00,WeatherDisplay:10.37,2013-07-03 02:32:00,
2013-07-02 20:37:00,57.9,42.8,29.35,ENE,68,0.0,0.0,57,0.00,CLR,,0.00,WeatherDisplay:10.37,2013-07-03 02:37:00,
2013-07-02 20:42:00,57.9,42.8,29.35,NE,45,0.0,0.0,57,0.00,CLR,,0.00,WeatherDisplay:10.37,2013-07-03 02:42:00,
2013-07-02 20:46:00,57.9,42.8,29.35,ENE,68,0.0,0.0,57,0.00,CLR,,0.00,WeatherDisplay:10.37,2013-07-03 02:46:00,
2013-07-02 20:51:00,57.9,42.8,29.35,ENE,68,0.0,0.0,57,0.00,CLR,,0.00,WeatherDisplay:10.37,2013-07-03 02:51:00,
2013-07-02 20:56:00,57.9,42.8,29.35,ENE,68,0.0,0.0,57,0.00,CLR,,0.00,WeatherDisplay:10.37,2013-07-03 02:56:00,
2013-07-02 21:01:00,57.9,42.8,29.34,NE,45,0.0,0.0,57,0.00,CLR,,0.00,WeatherDisplay:10.37,2013-07-03 03:01:00,
2013-07-02 21:02:00,57.9,42.8,29.34,NE,45,0.0,0.0,57,0.00,CLR,,0.00,WeatherDisplay:10.37,2013-07-03 03:02:00,
2013-07-02 21:07:00,57.9,42.8,29.34,ENE,68,0.0,0.0,57,0.00,CLR,,0.00,WeatherDisplay:10.37,2013-07-03 03:07:00,
2013-07-02 21:12:00,57.9,42.8,29.34,East,90,0.0,0.0,57,0.00,CLR,,0.00,WeatherDisplay:10.37,2013-07-03 03:12:00,
2013-07-02 21:17:00,57.9,42.8,29.35,ENE,68,0.0,0.0,57,0.00,CLR,,0.00,WeatherDisplay:10.37,2013-07-03 03:17:00,
2013-07-02 21:23:00,57.9,42.8,29.35,North,0,0.0,0.0,57,0.00,CLR,,0.00,WeatherDisplay:10.37,2013-07-03 03:23:00,
2013-07-02 21:27:00,57.9,42.8,29.35,ENE,68,0.0,0.0,57,0.00,CLR,,0.00,WeatherDisplay:10.37,2013-07-03 03:27:00,
2013-07-02 21:33:00,57.9,42.8,29.35,North,0,0.0,0.0,57,0.00,CLR,,0.00,WeatherDisplay:10.37,2013-07-03 03:33:00,
2013-07-02 21:35:00,57.9,42.8,29.35,NNE,22,0.0,0.0,57,0.00,CLR,,0.00,WeatherDisplay:10.37,2013-07-03 03:35:00,
2013-07-02 21:40:00,57.9,42.8,29.35,NE,45,0.0,0.0,57,0.00,CLR,,0.00,WeatherDisplay:10.37,2013-07-03 03:40:00,
2013-07-02 21:45:00,57.9,42.8,29.35,NNE,22,0.0,0.0,57,0.00,CLR,,0.00,WeatherDisplay:10.37,2013-07-03 03:45:00,
2013-07-02 21:50:00,57.9,42.8,29.35,NNE,22,0.0,0.0,57,0.00,CLR,,0.00,WeatherDisplay:10.37,2013-07-03 03:50:00,
2013-07-02 21:55:00,57.9,42.8,29.35,NNE,22,0.0,0.0,57,0.00,CLR,,0.00,WeatherDisplay:10.37,2013-07-03 03:55:00,
2013-07-02 22:00:00,57.9,42.8,29.36,NE,45,0.0,0.0,57,0.00,CLR,,0.00,WeatherDisplay:10.37,2013-07-03 04:00:00,
2013-07-02 22:01:00,57.9,42.8,29.36,NE,45,0.0,0.0,57,0.00,CLR,,0.00,WeatherDisplay:10.37,2013-07-03 04:01:00,
2013-07-02 22:03:00,57.9,42.8,29.36,North,0,0.0,0.0,57,0.00,CLR,,0.00,WeatherDisplay:10.37,2013-07-03 04:03:00,
2013-07-02 22:04:00,57.9,42.8,29.36,North,0,0.0,0.0,57,0.00,CLR,,0.00,WeatherDisplay:10.37,2013-07-03 04:04:00,
2013-07-02 22:05:00,57.9,42.8,29.36,North,0,0.0,0.0,57,0.00,CLR,,0.00,WeatherDisplay:10.37,2013-07-03 04:05:00,
2013-07-02 22:10:00,57.9,42.8,29.36,ENE,68,0.0,0.0,57,0.00,CLR,,0.00,WeatherDisplay:10.37,2013-07-03 04:10:00,
2013-07-02 22:15:00,57.9,42.8,29.36,NNE,22,0.0,0.0,57,0.00,CLR,,0.00,WeatherDisplay:10.37,2013-07-03 04:15:00,
2013-07-02 22:20:00,57.9,42.8,29.36,North,0,0.0,0.0,57,0.00,CLR,,0.00,WeatherDisplay:10.37,2013-07-03 04:20:00,
2013-07-02 22:25:00,57.9,42.8,29.36,North,0,0.0,0.0,57,0.00,CLR,,0.00,WeatherDisplay:10.37,2013-07-03 04:25:00,
2013-07-02 22:30:00,57.9,42.8,29.36,North,0,0.0,0.0,57,0.00,CLR,,0.00,WeatherDisplay:10.37,2013-07-03 04:30:00,
2013-07-02 22:31:00,57.9,42.8,29.36,ENE,68,0.0,0.0,57,0.00,CLR,,0.00,WeatherDisplay:10.37,2013-07-03 04:31:00,
2013-07-02 22:32:00,57.9,42.8,29.36,ENE,68,0.0,0.0,57,0.00,CLR,,0.00,WeatherDisplay:10.37,2013-07-03 04:32:00,
2013-07-02 22:37:00,57.9,42.8,29.38,North,0,0.0,0.0,57,0.00,CLR,,0.00,WeatherDisplay:10.37,2013-07-03 04:37:00,
2013-07-02 22:42:00,57.9,42.8,29.38,ENE,68,0.0,0.0,57,0.00,CLR,,0.00,WeatherDisplay:10.37,2013-07-03 04:42:00,
2013-07-02 22:46:00,57.9,42.8,29.38,ENE,68,0.0,0.0,57,0.00,CLR,,0.00,WeatherDisplay:10.37,2013-07-03 04:46:00,
2013-07-02 22:47:00,57.9,42.8,29.38,ENE,68,0.0,0.0,57,0.00,CLR,,0.00,WeatherDisplay:10.37,2013-07-03 04:47:00,
2013-07-02 22:52:00,57.9,42.8,29.38,ENE,68,0.0,0.0,57,0.00,CLR,,0.00,WeatherDisplay:10.37,2013-07-03 04:52:00,
2013-07-02 22:54:00,57.9,42.8,29.38,NE,45,0.0,0.0,57,0.00,CLR,,0.00,WeatherDisplay:10.37,2013-07-03 04:54:00,
2013-07-02 22:59:00,57.9,42.8,29.36,NE,45,0.0,0.0,57,0.00,CLR,,0.00,WeatherDisplay:10.37,2013-07-03 04:59:00,
2013-07-02 23:04:00,57.9,42.8,29.36,ENE,68,0.0,0.0,57,0.00,CLR,,0.00,WeatherDisplay:10.37,2013-07-03 05:04:00,
2013-07-02 23:09:00,57.9,42.8,29.36,ENE,68,0.0,0.0,57,0.00,CLR,,0.00,WeatherDisplay:10.37,2013-07-03 05:09:00,
2013-07-02 23:14:00,57.9,42.8,29.36,North,0,0.0,0.0,57,0.00,CLR,,0.00,WeatherDisplay:10.37,2013-07-03 05:14:00,
2013-07-02 23:19:00,57.9,42.8,29.38,North,0,0.0,0.0,57,0.00,CLR,,0.00,WeatherDisplay:10.37,2013-07-03 05:19:00,
2013-07-02 23:20:00,57.9,42.8,29.38,North,0,0.0,0.0,57,0.00,CLR,,0.00,WeatherDisplay:10.37,2013-07-03 05:20:00,
2013-07-02 23:25:00,57.9,42.8,29.38,NNE,22,0.0,0.0,57,0.00,CLR,,0.00,WeatherDisplay:10.37,2013-07-03 05:25:00,
2013-07-02 23:30:00,57.9,42.8,29.38,NE,45,0.0,0.0,57,0.00,CLR,,0.00,WeatherDisplay:10.37,2013-07-03 05:30:00,
2013-07-02 23:35:00,57.9,42.8,29.38,ENE,68,0.0,0.0,57,0.00,CLR,,0.00,WeatherDisplay:10.37,2013-07-03 05:35:00,
2013-07-02 23:40:00,57.9,42.8,29.36,ENE,68,0.0,0.0,57,0.00,CLR,,0.00,WeatherDisplay:10.37,2013-07-03 05:40:00,
2013-07-02 23:46:00,57.9,42.8,29.36,NE,45,0.0,0.0,57,0.00,CLR,,0.00,WeatherDisplay:10.37,2013-07-03 05:46:00,
2013-07-02 23:51:00,57.9,42.8,29.36,NE,45,0.0,0.0,57,0.00,CLR,,0.00,WeatherDisplay:10.37,2013-07-03 05:51:00,
2013-07-02 23:56:00,57.9,42.8,29.36,NE,45,0.0,0.0,57,0.00,CLR,,0.00,WeatherDisplay:10.37,2013-07-03 05:56:00,
2013-07-02 23:57:00,57.9,42.8,29.36,NE,45,0.0,0.0,57,0.00,CLR,,0.00,WeatherDisplay:10.37,2013-07-03 05:57:00,
2013-07-02 23:58:00,57.9,42.8,29.39,NE,45,0.0,0.0,57,0.00,CLR,,0.00,WeatherDisplay:10.37,2013-07-03 05:58:00,